Location: Chiroubles
(46.1812°N, 4.6660°E)
Time: 06:16:00
(UTC+00:00)

Transit 4A - Pass Details

Date: 06 December 2020
Orbit: 864 x 980 km, 66.8° (Epoch: 25 January)

Event Time Altitude Azimuth Distance (km) Brightness Sun altitude
Rises 07:08:31 0° 237° (WSW) 3,640 10.7 -1.0°
Reaches altitude 10° 07:11:12 10° 244° (WSW) 2,709 10.0 -0.6°
Maximum altitude 07:17:11 42° 314° (NW) 1,372 8.4 0.3°
Drops below altitude 10° 07:23:15 10° 24° (NNE) 2,741 10.3 1.2°
Sets 07:26:00 0° 32° (NNE) 3,688 11.0 1.6°
